Showing default

IRIDIUM 118, 42807

Orbit data source: Space-Track

IRIDIUM 118, 42807 is a payload satellite owned by Iridium (US) in LEO that was launched on Sun, 25 Jun 2017 UTC via an FALCON 9 launch vehicle from the Air Force Western Test Range (AFWTR). Payload-class satellites include a variety of spacecraft equipped with specific instruments for various scientific and technological missions. These include communications satellites like Starlink; space stations such as the ISS; scientific satellites like the Hubble; Earth observation satellites from companies like Planet Labs, Umbra, and HawkEye 360; GPS; miniature CubeSats for education and research; and military/defense satellites.

Loading next visibility...
Identifier
42807, 2017-039E
Orbit
LEO
Country
Flag of USUS
Related business
Manufacturer
OATK SSG Gilbert
Mission
Operational Commercial Communications
Bus & Motor
ELITEBUS, Unknown motor
Mass
860 kg wet, 700 kg dry
Launch date (UTC)
2017-06-25 (8 years ago)
Launch vehicle
FALCON 9
Launch site
Air Force Western Test Range (AFWTR)
Object type
Payload
Rocket body
Debris
Shape & HBR
Trap Box + 2 Pan, 4.8 m
Radar Cross Section
10.154 m², Large (>1 m²)

Expand to show TLE details & history
Last TLE update: 12 hours ago

TLE from 12 hours ago
0 IRIDIUM 118
1 42807U 17039E   25310.12406256  .00000029  00000-0  31901-5 0  9998
2 42807  86.3941  86.8868 0002139  90.2787 269.8654 14.34217456437973
Epoch: 2025-11-06T02:58Z
TLE epoch observation values (Epoch: 2025-11-06T02:58:39.005Z)
Latitude
Longitude
-3.36261°
Altitude
780.723 km
Speed
7.463 km/s
True Right ascension
05h 47m 32s
True Declination
0° 00' 00"
Sunlit
Object was in full shadow at epoch
Visualization orbit readout
Latitude
Unknown
Longitude
Unknown
Altitude
Unknown
Speed
Unknown
Apparent Right ascension
Unknown
Apparent Declination
Unknown
Sunlit
N/A
Visualization observer readout
Local Sidereal Time
10:53:16
Azimuth
Unknown
Elevation
Unknown
Doppler factor
Unknown
Orbital elements
Apogee altitude
776.163 km
Perigee altitude
773.103 km
Semi-major axis
7,152.77 km
Eccentricity
0.00021
Inclination
86.3941°
RAAN
86.8868°
Arg. of periapsis
90.2787°
True anomaly
269.84089°
Mean anomaly
269.8654°
Eccentric anomaly
269.85314°
Mean motion
3.58783 °/min
Orbital period
100.34 mins
BSTAR
0.0000031901
Loading maneuver chart data...
Computing Atmospheric mass density...
Loading historical data...
Loading historical data...
Loading historical data...
Loading historical data...
Loading historical data...
Loading historical data...
Loading historical data...

Documentation

Showing up to 5 results
|